This is the latest recevied weather packets stored in our database for station/object KB4MOX. If no packets are shown the sender has not sent any weather packets the latest 10 day(s).
| Time | Temp. | Humidity | Pressure | Rain* | Wind** | Luminosity | Snow |
|---|---|---|---|---|---|---|---|
| 1787867284 | 27.78° C | 73% | 1015.1 hPa | 0 mm | - | 34 W/m² | - |
| 1787866981 | 27.78° C | 75% | 1015.1 hPa | 0 mm | - | 60 W/m² | - |
| 1787866675 | 27.78° C | 75% | 1015 hPa | 0 mm | - | 57 W/m² | - |
| 1787866374 | 27.78° C | 75% | 1015.1 hPa | 0 mm | - | 39 W/m² | - |
| 1787866069 | 27.78° C | 74% | 1014.9 hPa | 0 mm | - | 31 W/m² | - |
| 1787865764 | 28.33° C | 75% | 1014.7 hPa | 0 mm | - | 62 W/m² | - |
| 1787865459 | 28.33° C | 75% | 1014.5 hPa | 0 mm | - | 63 W/m² | - |
| 1787865154 | 28.33° C | 74% | 1014.6 hPa | 0 mm | - | 54 W/m² | - |
| 1787864851 | 28.89° C | 74% | 1014.4 hPa | 0 mm | - | 75 W/m² | - |
| 1787864550 | 28.89° C | 73% | 1014.6 hPa | 0 mm | - | 99 W/m² | - |
| 1787864245 | 29.44° C | 72% | 1014.7 hPa | 0 mm | - | 104 W/m² | - |
| 1787863940 | 29.44° C | 71% | 1014.6 hPa | 0 mm | - | 125 W/m² | - |
| 1787863638 | 30° C | 69% | 1014.6 hPa | 0 mm | - | 161 W/m² | - |
| 1787863337 | 30° C | 68% | 1014.5 hPa | 0 mm | - | 164 W/m² | - |
| 1787863034 | 31.11° C | 65% | 1014.2 hPa | 0 mm | - | 143 W/m² | - |
| 1787862729 | 30.56° C | 66% | 1014.3 hPa | 0 mm | - | 527 W/m² | - |
| 1787862423 | 30° C | 68% | 1014.1 hPa | 0 mm | - | 558 W/m² | - |
| 1787862119 | 30° C | 68% | 1014.2 hPa | 0 mm | - | 261 W/m² | - |
| 1787861818 | 30.56° C | 67% | 1014.2 hPa | 0 mm | - | 405 W/m² | - |
| 1787861516 | 30.56° C | 66% | 1014.4 hPa | 0 mm | - | 584 W/m² | - |
| 1787861212 | 30° C | 69% | 1014.2 hPa | 0 mm | - | 524 W/m² | - |
| 1787860910 | 30° C | 70% | 1014.5 hPa | 0 mm | - | 601 W/m² | - |
| 1787860606 | 30.56° C | 68% | 1014.9 hPa | 0 mm | - | 601 W/m² | - |
| 1787860300 | 30° C | 68% | 1014.9 hPa | 0 mm | - | 601 W/m² | - |
| 1787859996 | 30° C | 67% | 1014.9 hPa | 0 mm | - | 629 W/m² | - |
* Rain latest hour (hover to see other rain measurements)
** Current wind speed in m/s (hover to see current wind gust speed)